User: anonymous   Login
Location: Kailua
(21.4020°N, 157.7390°W)
Time: 03:01:29
(UTC-10:00)
Language:

Cosmos 2221 Rocket - Orbit

View from above orbital plane
View from above orbital plane
View from above satellite
View from above satellite

Ground track
Ground track

The orbit data is extracted from the following two-line orbital elements,

1 22237U 92080B   16126.18911554  .00000153  00000-0  17875-4 0  9996
2 22237  82.5100 137.2454 0021356  99.0769 314.9851 14.78257490263163
Epoch (UTC): 05 May 2016 04:32:19
Eccentricity: 0.0021356
inclination: 82.5100°
perigee height: 620 km
apogee height: 650 km
right ascension of ascending node: 137.2454°
argument of perigee: 99.0769°
revolutions per day: 14.78257490
mean anomaly at epoch: 314.9851°
orbit number at epoch: 26316

The dashed part of the orbit path shows where the satellite is in the earth's shadow,  

DLR